Theta_e
340 339 339 340 342 342 342 341 339 338 338 337 335 336 336 336 335 335 335 335 334 334 334 333 331 330 330 329 330 328 326 327 327 329 329 326 324 326 328 329 328 327 326 325 325 326 326 327 327 327 327 327 327 326 325 326 326 327 327 327 327 327 327 328 328 328 328 328 328 328 327 327 327 327 327 326 326 326 326 326 325 325 326 326 326
340 339 337 338 340 340 341 341 338 338 337 335 335 334 335 335 334 335 335 335 335 334 333 333 331 331 331 330 330 328 326 327 327 327 327 326 326 326 328 328 327 327 326 326 326 325 326 326 327 327 327 327 327 326 326 326 326 327 326 327 327 327 327 328 328 327 328 328 327 327 327 327 327 327 326 325 324 324 324 324 324 324 325 325 324
339 339 338 338 338 339 341 340 338 337 336 335 335 334 335 334 334 334 334 334 335 334 333 332 332 331 330 330 328 327 327 327 326 326 327 327 327 326 327 327 327 327 326 326 326 326 327 327 327 327 327 327 328 327 326 326 326 327 326 326 327 327 328 328 328 328 328 327 327 327 327 327 327 325 324 322 321 321 321 322 323 323 324 323 322
339 340 339 338 338 338 339 339 337 337 336 336 335 335 335 334 334 333 333 334 335 334 333 332 331 331 329 328 327 326 326 326 325 327 328 326 326 326 326 326 327 327 327 327 327 327 328 328 328 328 327 328 328 327 327 326 326 327 326 326 326 327 328 328 328 328 328 327 328 327 327 327 326 324 322 322 322 322 321 321 322 322 322 322 321
338 339 339 339 338 338 338 338 337 336 335 336 336 336 335 334 333 332 333 335 334 333 333 332 331 329 327 327 326 326 326 325 327 328 327 325 326 326 326 327 328 328 327 326 327 327 327 327 328 328 327 328 328 328 327 326 326 327 327 326 326 327 327 328 328 328 328 327 327 327 327 327 326 324 323 323 323 323 322 321 321 322 322 321 321
338 338 338 339 338 338 338 338 337 336 335 335 335 335 335 333 332 332 333 334 333 333 333 332 330 327 327 327 326 325 326 326 328 327 325 325 326 327 327 328 328 327 325 325 326 327 327 327 327 328 328 328 328 327 327 326 325 327 327 326 326 326 326 327 328 328 328 327 327 326 326 327 325 324 324 324 323 322 321 320 320 320 321 320 319
338 337 338 338 338 339 339 338 336 335 334 334 335 335 334 333 333 332 332 333 333 332 332 330 327 327 328 327 325 326 326 326 325 325 326 326 327 327 327 327 326 325 324 325 327 327 327 327 327 327 327 327 327 326 327 326 325 327 327 326 326 327 326 327 328 328 328 327 326 325 325 326 324 323 325 325 324 322 321 320 319 318 318 318 317
337 337 337 337 338 339 338 338 335 334 333 334 336 335 333 333 333 332 332 333 331 330 329 327 326 326 326 325 326 327 325 324 325 326 327 327 327 326 325 325 325 325 325 326 326 326 326 327 327 326 326 326 326 326 326 325 325 327 327 327 326 327 327 327 327 328 328 327 326 326 325 325 324 323 323 324 324 324 322 319 318 317 316 315 314
336 337 337 337 337 338 338 337 335 334 333 334 335 333 332 333 332 331 333 332 329 328 327 326 326 326 325 326 326 325 324 325 325 326 326 326 325 325 325 325 326 325 325 324 325 326 326 327 326 326 326 326 326 326 326 326 326 327 328 328 327 327 327 328 327 327 327 327 327 326 325 325 324 323 323 323 323 324 323 320 318 316 314 312 310
336 336 336 336 336 337 338 337 335 334 334 334 333 331 332 332 330 331 332 330 328 327 327 326 326 326 326 326 325 324 324 325 325 325 325 324 324 324 325 325 325 325 325 324 324 325 326 326 325 325 325 326 326 326 325 326 326 327 328 328 327 327 328 328 327 327 327 327 326 326 326 325 324 324 324 323 323 323 323 322 320 318 314 310 309
336 336 336 335 335 335 336 336 335 334 334 334 332 331 332 331 328 329 329 328 327 327 327 327 327 326 326 325 324 324 323 323 324 324 324 324 324 324 324 324 323 323 324 324 324 324 324 325 324 324 324 324 325 325 325 325 326 326 327 327 327 327 327 327 327 327 327 327 326 327 327 326 325 324 324 324 323 323 323 323 322 319 315 311 309
336 336 335 334 334 333 334 335 335 335 334 333 331 330 330 328 327 328 327 327 328 327 327 327 326 326 325 324 325 323 321 321 323 322 321 321 321 320 320 319 318 318 319 321 323 323 323 323 323 323 324 324 324 324 325 325 325 325 326 326 326 326 326 326 326 326 327 327 327 327 327 326 325 324 324 324 323 322 322 322 322 320 316 312 310
336 336 335 334 333 332 333 334 335 335 334 332 330 329 328 326 326 327 326 327 327 326 326 326 325 325 324 325 323 320 318 318 318 317 316 316 316 315 315 315 315 316 317 318 320 321 322 322 322 321 322 324 324 324 324 325 325 325 325 326 325 325 326 326 326 327 326 327 328 327 327 327 326 325 324 324 323 322 321 322 321 320 317 312 309
336 335 334 334 331 329 331 334 335 335 333 331 330 328 327 325 325 326 326 326 326 325 325 325 324 324 324 323 319 317 317 315 314 314 315 316 316 316 316 316 316 317 318 318 319 319 319 320 321 321 322 323 323 323 324 324 325 325 325 326 325 325 325 326 326 327 327 327 327 327 327 326 325 324 324 324 323 322 321 321 320 319 316 313 311
335 335 334 334 331 328 331 335 335 334 333 331 329 328 327 326 326 326 326 326 325 325 325 324 323 323 323 321 318 317 316 314 314 315 316 318 318 317 318 318 318 318 317 318 319 318 317 317 319 320 322 322 322 322 322 323 324 325 325 326 326 326 326 326 326 326 326 326 326 326 327 326 324 323 324 323 322 322 321 321 320 317 315 314 313
335 335 334 333 332 329 331 334 335 334 333 331 329 327 326 327 327 327 326 325 324 324 324 323 322 323 323 321 319 318 316 315 314 315 317 318 318 319 319 319 319 318 316 316 318 318 317 317 319 320 322 322 322 321 321 321 322 324 325 325 325 326 326 325 324 325 326 326 325 326 326 325 324 323 323 323 322 322 321 320 320 315 313 314 315
334 335 334 333 331 329 330 333 335 334 333 331 329 326 326 327 327 327 325 324 324 323 323 323 323 324 324 322 320 318 316 315 314 315 317 318 318 320 320 319 318 316 315 316 317 318 317 317 319 320 321 323 322 322 321 320 319 322 324 324 324 325 325 324 322 323 325 325 325 325 325 325 324 323 323 322 321 322 320 319 319 314 311 313 314
334 334 334 333 331 329 329 333 334 334 334 332 329 327 326 326 326 325 324 323 323 323 323 323 323 324 325 323 320 318 317 317 316 315 316 317 318 320 321 319 317 314 313 314 317 317 317 316 317 317 319 320 321 320 319 319 320 321 322 323 323 323 323 322 320 321 323 324 324 325 325 325 324 323 323 322 321 321 319 317 316 313 312 311 311
334 334 334 333 331 329 329 331 333 333 333 332 330 328 327 326 324 324 323 323 323 323 323 324 325 325 324 322 320 319 318 317 316 315 316 317 318 320 320 320 320 315 311 313 316 317 316 315 314 315 316 317 318 319 318 319 321 321 321 322 321 319 319 320 320 321 322 323 323 324 324 324 324 323 323 323 321 320 317 314 313 313 312 309 308
334 334 334 333 331 329 330 331 332 332 332 332 331 329 328 327 325 325 325 324 324 324 324 325 325 324 323 322 322 321 320 319 316 315 316 318 319 320 321 321 321 316 311 310 312 315 315 313 313 317 320 320 320 320 320 320 320 319 319 319 318 318 319 320 321 322 323 322 322 322 323 323 323 322 323 323 321 318 314 312 313 312 311 309 308
333 333 333 332 330 329 330 331 331 331 331 332 331 329 329 328 326 326 325 325 326 325 325 325 324 322 322 323 323 323 321 319 316 316 317 318 319 321 321 322 321 317 311 308 308 311 311 312 316 320 321 321 321 321 321 321 320 319 319 320 320 320 321 322 322 322 320 318 317 318 319 321 322 322 322 321 320 317 313 311 312 312 311 311 309
330 330 331 331 329 329 330 331 331 330 330 331 331 330 329 328 327 326 325 326 326 325 325 324 322 321 323 324 324 322 319 316 316 316 317 318 319 320 321 321 320 316 311 308 308 308 309 314 318 320 320 320 320 320 320 321 321 321 320 321 321 320 320 320 320 319 317 315 315 315 315 317 320 322 322 321 320 317 313 312 313 312 311 311 311
328 329 330 330 330 328 329 331 330 330 330 331 330 330 328 328 327 325 324 326 326 325 326 324 321 323 325 326 324 319 316 316 316 317 317 317 319 320 320 320 318 313 310 308 307 307 310 316 319 319 320 320 319 318 319 320 322 322 321 320 319 316 315 316 316 316 316 316 316 316 315 315 316 318 320 320 320 319 317 315 314 313 312 312 312
325 327 328 328 328 328 329 330 330 330 330 330 329 328 328 328 328 326 324 326 326 326 326 323 322 324 326 326 323 318 316 317 318 318 317 317 319 319 319 318 313 309 308 307 307 306 309 316 319 319 319 319 319 318 317 318 320 322 322 320 318 316 315 314 314 314 315 315 316 316 317 316 316 316 317 318 320 320 320 318 317 315 314 314 314
324 325 325 325 326 327 328 329 329 329 329 329 328 328 328 328 329 327 325 325 327 326 325 323 323 325 326 325 322 319 318 319 319 319 318 317 319 318 316 314 310 307 306 306 306 305 306 313 317 317 317 317 317 317 317 316 316 318 321 322 321 319 318 316 316 316 316 316 317 316 316 316 316 315 316 317 319 320 320 320 319 317 315 315 314
322 323 324 324 324 325 326 327 328 328 328 329 329 327 328 329 328 328 326 325 326 326 325 324 324 326 326 324 321 319 319 320 319 319 318 318 318 316 313 311 308 306 306 305 305 305 305 310 315 315 316 316 315 315 315 315 315 314 316 319 321 321 320 320 319 319 318 316 315 314 314 314 315 315 315 315 316 318 319 318 317 316 315 314 314
321 322 322 322 322 323 325 326 327 327 328 329 329 328 329 329 329 329 327 325 326 326 325 325 325 326 325 323 321 319 319 320 320 320 319 319 317 314 312 309 307 307 307 307 307 307 307 309 312 313 313 313 312 311 311 313 314 312 310 311 316 320 320 319 318 315 313 312 311 312 313 314 314 314 314 314 314 315 315 315 314 314 314 313 313
317 319 320 319 319 321 323 324 325 326 327 328 328 329 329 328 328 328 327 325 325 324 325 325 324 324 323 322 321 320 319 320 320 320 320 319 318 315 310 308 308 309 310 310 311 311 310 310 309 309 309 309 309 309 309 309 310 310 307 306 310 314 315 313 312 311 311 310 309 310 313 314 314 314 314 314 314 313 313 313 313 313 313 313 313
313 315 317 316 317 319 321 322 323 324 325 325 327 328 328 328 327 327 326 325 325 325 325 324 323 322 322 321 321 320 320 320 321 320 319 318 316 313 310 308 309 310 311 312 312 312 312 312 310 309 309 309 309 310 309 309 309 309 308 305 306 308 309 309 310 311 311 312 311 310 312 312 312 313 312 312 312 312 313 313 313 313 314 313 314
309 311 314 315 316 318 319 321 322 323 323 324 325 326 325 326 326 327 326 326 325 325 325 324 322 322 322 321 321 320 320 319 319 319 320 318 315 312 309 308 310 311 311 312 312 313 313 313 312 312 312 312 312 311 310 310 311 311 311 309 307 306 307 309 311 311 311 312 313 313 312 312 312 312 312 312 312 312 312 312 311 312 312 313 313
307 308 312 314 316 317 319 320 321 322 322 323 323 324 323 324 325 325 326 326 325 325 324 323 322 321 321 321 321 320 319 318 317 319 320 318 314 312 309 307 309 311 312 313 313 314 314 313 313 313 313 313 314 313 312 311 311 311 311 312 311 311 311 311 312 312 312 312 313 313 313 313 313 313 313 313 312 311 311 310 310 311 311 311 312
307 308 310 313 315 316 317 319 319 320 321 321 322 323 322 323 324 323 324 325 325 324 323 322 321 321 321 320 320 320 318 317 318 320 319 315 313 312 310 307 309 311 313 314 315 315 314 314 314 314 313 313 314 314 314 313 313 312 311 312 312 312 312 313 313 313 313 313 313 313 313 312 313 313 313 312 311 311 311 311 311 311 311 312 313
305 306 308 310 311 311 314 317 317 318 319 320 321 322 321 321 322 322 322 323 323 322 322 321 321 321 321 320 319 319 318 318 319 320 317 313 312 312 310 308 309 311 312 313 315 316 316 314 314 314 313 314 314 314 314 314 314 314 313 313 312 312 312 312 312 312 312 312 312 312 312 312 312 312 312 312 312 312 312 312 312 312 312 312 312
305 306 307 309 309 310 313 315 315 316 318 319 320 320 319 319 320 321 320 321 321 320 320 320 320 320 320 318 318 318 318 318 319 318 316 314 312 311 310 310 311 312 313 314 316 317 317 317 316 315 314 314 314 314 314 314 314 314 314 314 314 313 313 313 313 313 313 312 312 312 312 312 313 313 313 313 313 313 313 313 313 313 313 313 313
304 306 308 308 309 311 312 312 312 313 315 317 318 318 318 318 319 319 319 319 319 319 319 319 318 318 318 318 318 318 318 318 318 317 317 316 313 312 313 314 315 315 316 318 318 318 318 318 318 317 316 315 315 314 314 314 314 314 314 314 314 314 314 314 314 314 314 314 314 313 313 313 313 314 314 314 314 314 314 314 314 314 314 314 314
303 305 306 306 307 308 309 310 310 310 311 313 314 315 315 315 315 316 316 316 317 316 316 316 316 316 316 317 318 317 317 317 317 318 318 318 316 316 317 317 318 318 319 319 319 319 318 319 319 318 318 317 316 316 315 315 315 316 316 316 316 316 316 316 316 316 316 316 316 316 315 315 315 315 314 314 314 314 314 314 314 315 315 315 315
305 305 305 305 306 306 307 308 308 308 308 309 311 312 313 312 312 312 313 313 315 315 314 314 314 314 314 314 314 314 314 316 316 317 318 318 316 316 317 317 318 319 319 319 318 317 317 317 317 318 319 318 318 318 317 317 317 317 317 317 317 317 317 318 318 318 318 318 318 318 318 317 317 317 317 316 316 316 315 315 315 315 315 315 315
305 306 305 306 306 306 307 307 307 307 307 307 309 310 311 310 310 310 310 311 312 312 312 312 312 312 312 312 312 312 312 313 315 316 316 315 314 314 315 315 316 316 317 317 316 316 316 315 315 316 318 319 319 319 319 318 318 318 318 318 318 318 319 319 319 319 319 319 319 319 319 319 318 318 318 318 318 318 318 317 317 317 316 316 316
304 304 304 305 305 306 306 306 307 307 307 307 308 309 309 309 308 309 309 309 309 309 309 309 309 309 310 311 312 312 310 309 310 312 312 312 312 312 313 314 313 313 313 313 313 313 313 313 313 313 315 317 318 318 318 318 318 318 318 318 318 318 317 317 317 317 317 317 317 318 318 318 318 319 319 319 319 318 319 319 318 318 318 318 317
302 302 302 303 303 303 304 304 305 305 306 307 308 308 308 308 308 309 309 308 307 307 307 307 307 307 307 308 309 310 309 308 307 307 306 307 307 308 309 310 310 310 311 312 312 311 311 311 309 307 308 310 312 313 313 314 314 314 314 313 313 313 313 312 312 312 312 312 313 313 313 314 315 316 316 317 317 318 318 318 318 318 318 318 318
300 300 300 300 300 300 301 301 301 302 303 304 305 306 306 305 306 306 305 304 304 303 303 303 304 305 305 305 304 305 305 305 305 305 304 304 304 304 304 304 305 306 307 309 310 309 310 310 309 306 304 304 305 305 305 305 306 306 306 306 306 306 306 306 306 306 307 307 307 308 308 309 309 310 311 312 314 315 316 317 317 317 317 317 316
300 300 300 300 299 299 299 299 300 300 300 301 302 302 302 303 303 302 301 300 300 300 300 300 301 302 302 302 301 301 301 301 302 302 302 302 302 301 301 301 302 303 303 303 304 304 305 306 306 306 305 304 304 304 304 305 304 303 303 303 303 303 303 303 303 303 304 304 304 304 305 305 305 306 306 307 308 310 312 313 314 315 315 315 315
300 300 300 300 299 299 299 299 299 299 299 299 300 300 300 301 301 299 299 298 298 298 298 298 298 299 299 299 299 299 299 299 299 299 299 299 299 299 299 299 299 300 300 300 300 300 300 300 301 301 302 302 303 303 303 303 303 302 301 302 302 303 303 303 303 303 303 303 303 303 302 302 303 303 303 304 304 305 306 308 310 311 312 313 313
299 300 300 299 299 299 299 299 299 299 299 299 299 299 299 299 299 298 297 297 297 297 297 297 297 297 297 297 297 297 297 298 298 298 298 298 298 298 298 298 298 298 298 298 298 298 298 299 298 299 299 299 299 299 299 300 300 299 299 300 300 300 301 301 301 301 301 300 300 300 300 300 300 300 301 301 301 301 302 303 304 305 307 308 310
299 299 299 299 299 299 299 299 299 299 299 299 298 298 298 298 297 297 297 296 296 296 296 296 297 296 296 297 297 297 297 297 297 297 297 297 297 298 298 298 298 298 298 298 298 298 298 298 298 298 298 298 298 298 298 298 298 298 298 298 298 299 299 299 299 299 299 299 299 299 299 299 299 299 299 299 299 299 299 299 300 300 301 303 305
299 299 299 299 299 299 299 299 299 299 299 299 298 298 298 297 297 296 296 296 296 296 296 296 296 296 296 296 296 296 296 296 297 297 297 297 297 297 297 297 297 297 298 298 298 298 298 298 298 298 298 298 298 298 298 298 298 298 298 298 298 298 298 298 298 298 298 298 298 298 298 298 298 299 299 299 299 299 299 299 298 298 298 299 301
299 299 299 299 299 299 299 299 299 299 299 299 298 298 298 297 297 296 296 295 295 295 296 296 296 296 296 296 296 296 296 296 296 296 297 297 297 297 297 297 297 297 297 297 297 298 297 298 298 298 298 298 298 298 298 298 298 298 298 298 298 298 298 298 298 298 298 298 298 298 298 298 298 298 298 298 298 298 299 299 299 298 298 298 299
298 298 298 298 298 299 299 299 299 299 298 298 298 298 298 297 297 296 296 296 295 295 295 295 295 295 295 295 295 296 296 296 296 296 296 297 297 297 297 297 297 297 297 297 297 297 297 297 297 297 297 297 297 297 297 297 297 297 297 297 297 297 297 297 297 298 298 298 298 297 297 297 297 297 297 298 298 298 299 299 299 299 299 299 299
297 297 297 298 298 298 298 298 298 298 298 298 298 298 298 297 297 296 296 296 295 295 295 295 295 295 295 295 295 295 296 296 296 296 296 296 296 296 296 296 296 296 296 296 296 296 296 297 296 296 297 296 296 296 296 296 296 296 296 296 297 297 297 297 297 297 297 297 297 297 297 297 297 297 297 297 298 298 299 300 301 301 301 301 301
297 297 297 298 298 298 298 298 298 298 297 297 297 298 298 297 297 297 297 296 296 295 295 295 295 295 295 295 295 295 295 296 296 296 296 296 296 296 296 296 296 296 296 296 296 296 296 296 296 296 296 296 296 296 296 297 296 296 296 296 296 297 297 297 297 297 297 297 297 297 298 298 298 298 298 299 299 299 300 301 301 302 302 302 302
296 296 297 297 298 298 298 298 297 297 297 296 296 297 298 297 297 297 297 296 296 296 295 295 295 295 295 294 295 295 295 295 295 295 295 295 295 295 295 295 295 295 295 295 296 296 296 296 296 296 296 296 297 297 298 298 298 297 297 297 297 297 297 296 297 297 297 297 297 298 298 299 299 300 300 300 300 300 300 301 301 302 302 302 301
Wind_Speed
22 27 28 26 26 23 21 21 19 18 17 18 17 15 15 14 14 17 20 21 19 17 17 18 16 14 15 15 16 18 18 18 17 16 15 15 13 13 12 12 12 11 10 9 9 10 10 10 10 9 9 8 8 9 10 10 9 8 9 11 13 13 14 14 14 14 17 19 17 16 15 13 13 12 10 9 9 9 8 6 5 4 4 4 4
23 26 26 26 26 24 22 21 20 19 18 18 17 16 15 13 13 16 18 19 20 19 18 17 16 15 16 17 19 19 19 19 17 15 15 14 13 12 11 11 11 11 10 10 10 11 11 11 11 10 10 9 9 10 11 11 10 9 10 13 14 13 15 16 15 15 18 20 19 19 17 14 12 12 11 10 9 9 8 6 6 5 5 5 6
24 26 27 27 26 24 22 21 20 19 19 17 16 16 16 14 14 16 19 20 20 19 18 17 15 15 16 18 20 20 18 18 16 14 13 13 12 11 11 11 11 10 10 10 10 11 12 12 11 10 10 10 9 10 11 11 11 10 11 12 14 14 15 17 16 16 18 20 19 18 16 14 13 12 12 11 10 9 8 7 8 8 7 7 7
26 27 28 28 27 25 23 22 20 20 20 18 18 18 17 17 18 18 21 21 20 18 18 17 17 16 17 18 19 19 17 16 15 15 14 13 12 11 11 11 11 11 10 9 9 10 10 11 11 11 12 11 10 10 11 11 12 12 12 12 13 15 16 17 17 16 17 18 17 15 14 13 12 12 13 13 10 9 10 10 10 9 9 8 8
27 27 29 30 28 26 25 23 20 21 20 19 20 19 17 18 20 21 20 20 19 19 20 20 19 19 20 20 20 19 17 16 16 16 14 12 11 10 10 10 10 10 10 9 9 10 10 10 10 11 12 12 11 10 11 12 13 12 13 13 12 13 15 17 18 17 17 17 16 15 13 9 10 14 14 13 10 10 12 12 12 10 9 10 10
28 29 29 30 28 27 26 23 22 22 20 20 20 18 17 18 21 22 21 20 20 20 22 22 22 22 22 22 20 19 18 17 15 14 12 11 10 10 10 10 10 10 10 9 9 10 10 10 10 12 13 12 11 11 12 13 13 12 13 14 12 12 13 15 18 18 18 16 14 14 10 7 14 18 13 11 11 11 13 13 12 11 11 11 11
27 30 30 29 29 29 27 24 23 22 20 20 20 18 16 16 20 22 22 21 21 22 24 25 24 24 23 21 19 17 15 14 12 11 10 10 10 10 10 10 9 8 8 8 8 9 9 10 11 12 12 12 11 12 13 13 13 13 14 15 13 12 12 14 17 18 18 16 13 12 7 6 15 17 12 13 13 11 12 13 12 12 12 12 11
26 29 30 30 29 29 28 26 23 21 20 20 19 18 16 16 19 21 22 22 23 24 25 25 24 23 22 20 17 15 13 12 11 11 11 11 10 10 9 8 7 6 6 7 7 8 9 10 11 11 11 11 11 13 13 14 13 13 15 16 15 13 12 13 16 16 17 16 13 11 5 5 13 14 10 12 14 13 13 13 14 13 12 12 11
24 28 29 29 29 29 28 26 23 21 20 20 19 17 15 18 21 21 23 25 25 26 25 24 23 21 20 18 16 14 13 12 12 12 12 11 10 9 8 7 6 6 6 6 6 7 8 10 10 10 10 11 12 12 13 14 14 14 15 16 15 13 11 12 14 14 14 14 14 12 7 7 13 14 9 9 12 13 13 14 16 15 13 12 10
22 26 27 26 27 29 28 25 23 21 20 19 19 17 17 21 23 23 26 26 26 25 24 22 21 20 18 17 15 15 14 14 14 13 12 11 10 8 8 7 7 6 6 6 6 6 7 8 8 8 9 10 11 11 12 13 14 15 15 15 14 13 12 11 12 12 11 12 14 14 11 10 14 16 12 11 11 11 12 13 14 14 13 12 10
19 21 22 24 25 26 26 25 24 22 21 20 19 18 20 24 25 25 26 26 26 25 23 22 21 19 17 16 15 15 15 16 15 14 13 11 10 9 7 7 6 6 6 6 6 6 7 7 7 8 8 9 9 10 11 12 13 14 14 14 14 13 13 12 12 12 11 12 14 15 14 11 11 13 13 13 12 10 12 14 12 11 13 12 10
16 17 19 22 23 23 23 24 25 23 22 21 20 20 23 25 26 27 27 26 25 24 23 22 21 19 17 17 16 15 15 16 15 14 13 12 10 9 7 6 6 5 5 5 6 6 6 7 7 7 7 7 8 9 11 11 11 13 13 13 13 13 13 12 12 13 12 13 14 15 16 12 8 9 11 12 12 9 10 14 13 11 12 12 11
15 15 18 22 23 22 24 25 25 24 23 23 22 23 25 26 27 28 28 26 25 24 24 23 20 19 18 17 16 14 15 16 15 14 13 12 11 9 8 7 6 5 5 5 5 6 6 7 6 6 7 8 8 9 10 11 11 12 13 12 12 12 11 11 11 12 11 12 13 13 14 11 8 7 8 9 11 9 10 14 14 12 13 13 11
16 14 17 23 24 21 23 26 26 25 24 24 24 25 27 27 28 28 27 25 25 25 24 22 20 19 19 18 16 15 16 17 16 15 15 14 13 11 11 9 8 7 7 6 6 6 6 7 7 7 8 9 9 9 9 9 9 10 12 12 11 10 9 9 10 11 11 11 12 11 11 10 9 7 6 8 10 9 10 13 14 14 14 12 11
17 17 17 22 23 21 23 27 27 26 25 26 26 26 28 28 28 28 26 25 25 25 24 21 21 21 20 19 17 16 17 18 17 16 15 14 12 12 11 11 10 8 7 7 7 6 6 7 8 9 9 9 9 9 8 8 8 9 10 10 10 8 8 8 10 11 11 11 11 10 11 11 10 9 7 7 8 8 8 9 11 13 15 13 10
17 18 19 20 21 23 27 28 28 27 27 28 28 28 29 29 27 26 25 25 26 25 23 22 22 23 21 19 18 17 17 18 17 16 14 12 12 11 11 10 9 7 6 7 7 7 7 7 9 9 10 9 9 8 7 7 8 9 9 9 9 9 9 9 10 10 11 11 10 10 12 12 11 10 10 9 8 8 6 7 7 7 11 14 11
16 18 21 20 20 24 28 30 29 28 28 29 30 29 28 28 27 26 25 26 26 25 23 22 23 23 21 19 18 17 17 17 16 15 14 13 12 11 10 9 8 6 5 7 7 7 7 8 9 10 11 10 9 9 7 6 8 10 11 10 9 10 9 9 9 9 10 10 10 10 13 13 11 11 11 10 9 8 6 5 5 3 5 12 14
15 18 21 20 19 24 29 31 30 28 28 28 29 28 27 28 27 26 26 26 26 25 23 22 22 22 21 19 18 17 16 15 14 13 14 13 12 12 10 8 7 5 5 7 8 7 7 8 8 9 10 10 11 10 9 8 8 10 11 10 10 10 10 9 8 8 8 9 9 10 12 13 12 11 12 11 10 8 6 6 6 4 2 7 12
15 18 21 20 20 23 28 29 27 25 25 26 28 28 28 29 28 27 27 26 26 25 23 22 21 21 20 19 18 17 15 14 13 13 13 12 11 11 10 8 6 5 6 8 8 7 6 6 7 8 8 9 11 10 10 10 9 9 10 10 10 10 9 8 7 7 7 7 7 8 11 12 12 11 12 13 11 8 8 8 7 6 4 5 9
14 18 22 22 20 20 22 25 25 22 22 26 29 29 28 29 29 27 26 25 26 26 24 22 22 20 19 18 16 15 14 12 11 12 12 11 11 10 8 7 5 4 5 7 8 7 6 6 8 9 8 8 10 10 11 11 10 10 10 10 10 9 9 8 7 7 8 8 7 7 8 10 11 12 13 14 12 9 9 10 8 7 6 7 8
13 17 21 22 19 16 18 22 23 21 22 27 31 29 28 28 28 27 25 25 27 26 25 24 22 20 18 17 15 13 12 11 11 11 11 11 10 9 7 6 5 4 4 6 7 7 7 9 11 10 8 9 9 9 10 10 9 9 10 10 10 10 9 9 9 10 10 10 9 8 8 9 10 11 13 14 12 10 10 10 9 8 8 7 6
11 14 20 22 19 16 19 23 23 23 25 29 31 29 27 27 27 27 26 27 27 27 26 24 21 19 18 16 14 13 12 11 11 11 11 10 10 8 7 6 4 3 3 5 6 6 8 11 12 11 10 10 10 9 9 9 9 10 11 12 12 11 11 11 11 11 11 10 9 8 6 7 9 10 12 13 13 12 11 11 9 9 8 7 6
9 12 17 20 18 17 22 27 25 25 26 26 27 27 26 26 27 27 27 28 28 27 26 23 21 20 19 18 15 13 13 13 12 11 11 10 9 8 7 5 3 2 3 5 6 6 9 12 12 11 11 10 10 10 10 10 10 11 12 12 12 12 11 11 11 10 10 9 8 8 6 6 7 8 10 13 13 13 12 11 10 9 8 7 7
11 11 12 15 16 18 23 26 25 25 25 24 25 27 26 27 28 28 27 27 27 26 25 23 21 21 20 18 16 14 15 14 12 11 10 10 10 9 7 5 3 3 4 5 5 6 9 12 12 11 11 10 9 9 9 10 10 11 11 12 12 12 11 10 9 8 8 7 6 6 5 5 5 5 7 11 13 13 12 11 11 10 9 8 8
12 13 13 14 16 19 22 24 25 26 25 25 26 26 27 28 28 27 26 26 26 27 26 23 22 22 21 19 17 15 15 14 12 10 10 10 10 9 7 4 3 4 5 5 5 6 8 12 13 12 10 9 9 8 8 9 10 11 11 11 11 11 10 9 8 7 7 6 6 5 5 5 6 5 6 8 11 12 11 10 10 10 10 9 9
12 14 16 15 14 17 20 22 25 28 26 26 27 26 27 28 27 26 26 26 27 27 26 24 22 22 22 20 18 16 16 15 13 11 11 11 10 8 6 4 4 5 5 5 6 6 7 10 12 12 10 9 8 8 8 9 10 10 10 11 11 11 10 9 9 8 7 7 7 6 6 6 7 6 6 7 8 9 9 9 8 8 9 9 10
11 12 13 12 11 14 17 18 21 25 25 25 26 25 25 25 24 24 26 26 26 26 26 25 24 23 22 20 18 17 16 16 14 12 12 11 10 8 6 5 6 6 6 7 8 8 8 9 10 10 10 8 7 7 7 8 9 9 9 10 11 12 11 10 10 9 8 8 8 9 8 8 8 8 7 7 7 7 6 6 6 7 8 8 9
11 11 10 9 11 15 17 16 17 19 20 21 22 23 22 22 22 24 26 25 25 26 26 25 24 22 20 19 18 17 17 16 15 14 13 11 10 9 8 7 8 9 9 10 9 9 8 8 8 8 8 7 7 6 6 6 7 7 7 9 11 12 12 11 10 9 8 8 9 11 11 10 10 10 9 8 7 7 6 6 7 8 8 8 8
13 12 12 12 14 18 21 20 19 19 20 21 23 23 22 23 24 27 28 26 25 26 26 26 25 22 20 20 20 20 18 17 16 14 12 11 11 10 9 10 11 12 12 11 9 8 8 7 8 8 8 8 7 6 6 6 6 5 5 7 9 11 11 10 9 9 8 8 8 10 11 11 11 10 10 9 9 8 8 8 8 8 8 8 8
14 14 15 16 16 18 22 24 22 20 20 21 24 24 22 22 26 29 30 29 28 28 27 26 26 25 24 24 23 21 20 18 15 12 10 11 11 11 11 12 14 14 13 11 9 8 8 8 8 8 8 9 8 8 7 7 7 7 6 6 8 9 9 9 8 8 8 7 7 8 9 10 10 10 10 9 9 9 9 9 9 9 9 9 9
16 16 17 19 18 19 21 23 23 21 20 20 22 22 19 19 23 28 31 31 30 30 30 29 27 27 26 25 23 21 20 21 20 15 12 13 14 13 13 14 15 15 14 12 10 9 9 9 9 9 9 9 9 9 9 8 9 9 8 7 8 8 8 7 7 6 6 7 7 8 8 9 9 9 10 10 10 10 10 11 11 11 10 10 10
16 17 18 20 22 23 23 24 24 21 20 20 20 20 19 19 23 26 28 29 30 30 30 29 28 27 26 24 23 22 20 20 20 16 13 15 16 16 15 15 16 16 14 12 10 8 9 9 9 9 9 10 9 9 9 8 8 9 9 9 9 9 9 9 9 8 8 8 9 9 9 9 10 10 11 11 12 12 13 13 12 12 12 12 12
16 18 19 20 22 25 26 26 25 23 21 20 19 20 22 23 24 25 25 26 28 28 28 27 26 25 24 23 21 21 21 19 17 16 15 15 16 16 15 15 16 15 14 13 10 8 8 9 9 9 9 9 9 9 8 8 8 8 8 9 9 9 10 10 10 10 11 11 11 11 11 11 12 12 13 13 14 14 14 15 15 14 14 14 13
21 21 22 20 20 23 24 26 28 27 25 23 21 22 24 24 23 23 22 23 23 24 25 24 22 21 21 20 19 18 18 18 17 16 16 16 16 16 16 15 14 13 13 12 11 9 9 9 10 10 10 10 9 9 9 9 8 8 8 8 9 9 9 10 10 11 11 12 12 13 13 13 14 14 14 14 14 15 15 16 17 17 17 16 16
26 26 24 23 22 22 23 25 28 29 28 27 26 26 26 24 22 21 22 22 22 23 23 23 21 19 18 17 16 15 16 17 17 17 17 17 16 16 15 15 14 13 12 11 10 9 9 10 11 11 12 12 11 11 11 10 10 10 10 9 10 10 10 10 11 11 12 13 13 14 14 15 15 15 15 16 16 16 17 17 18 19 19 19 19
29 29 28 27 26 26 26 25 26 28 28 29 29 29 28 28 26 25 25 25 25 25 24 24 23 21 18 17 15 15 15 16 16 16 16 16 16 15 15 14 13 13 12 10 10 9 9 9 9 10 11 12 12 12 12 12 11 11 11 11 11 12 12 12 13 13 14 15 15 16 17 17 18 18 18 19 19 20 20 20 20 21 21 21 21
26 27 27 27 27 27 27 26 25 26 27 27 27 27 28 29 28 27 27 26 24 23 22 22 22 21 19 17 16 15 15 14 13 13 14 14 14 14 15 14 13 14 13 12 11 9 8 7 7 8 9 10 11 11 12 13 13 14 14 14 15 15 16 16 17 18 18 19 19 20 20 21 21 21 22 23 23 24 24 24 24 25 25 25 25
22 23 23 24 24 24 25 25 25 25 25 24 23 23 24 26 26 25 24 24 23 21 19 18 19 17 16 15 14 13 13 12 11 11 12 12 10 9 11 12 12 12 12 12 10 9 8 7 7 7 9 10 11 12 13 14 15 16 17 18 18 19 20 20 21 21 22 22 23 23 24 24 25 25 26 26 27 27 27 28 28 29 29 29 29
21 21 22 22 22 22 22 22 23 24 23 21 20 21 23 24 24 22 22 22 22 20 17 16 16 15 14 13 10 9 9 8 8 8 8 7 5 5 7 8 7 7 8 8 8 8 9 8 7 7 8 10 12 14 15 15 16 17 18 18 19 19 20 20 21 21 21 22 22 23 24 24 25 26 27 28 28 29 29 29 30 31 32 33 32
20 21 21 22 22 22 22 21 21 21 19 18 17 18 20 21 20 19 19 18 18 16 14 13 12 11 11 10 8 6 5 4 4 4 4 3 2 3 4 5 5 6 7 8 9 9 8 7 6 6 8 11 13 14 15 16 17 17 18 19 19 20 21 22 22 23 23 23 24 24 24 24 24 25 26 27 28 28 28 29 29 31 32 32 32
20 20 21 22 23 23 23 23 22 20 18 16 15 16 18 18 17 16 17 16 15 13 11 10 9 8 7 7 6 5 4 3 1 1 1 1 0 1 2 3 4 6 7 8 11 11 10 10 10 10 12 14 15 16 16 17 18 19 20 21 22 23 25 26 27 28 29 29 30 30 30 29 29 28 28 28 28 28 29 29 30 31 31 31 30
18 19 19 21 23 23 23 22 20 19 17 15 14 16 17 17 16 17 17 15 13 11 10 9 8 7 6 5 5 4 4 3 2 2 2 2 3 2 2 3 4 6 7 7 9 10 10 12 14 14 16 19 20 21 21 22 23 23 23 24 25 27 28 30 31 32 33 34 34 35 36 36 36 36 35 34 33 32 32 32 32 31 31 31 31
17 17 17 19 21 22 22 22 19 18 16 14 13 15 16 16 17 18 16 14 13 11 10 9 8 8 7 7 6 5 5 5 4 3 3 4 4 4 4 4 5 6 7 8 9 10 11 12 13 15 17 19 20 21 22 23 24 24 25 26 27 29 31 32 34 35 36 37 38 38 38 39 39 40 40 40 40 39 38 37 36 34 32 32 33
14 15 14 16 18 20 20 20 18 17 16 14 13 14 15 16 17 17 15 14 13 11 10 10 9 9 9 8 8 7 6 6 6 5 5 5 5 5 5 5 6 6 7 8 9 10 11 12 13 14 16 17 18 19 19 20 22 23 24 25 26 28 30 31 33 34 35 36 38 39 39 39 40 40 41 42 42 42 42 41 40 38 35 34 35
12 12 11 12 14 16 17 17 17 16 16 16 15 14 15 17 17 15 14 13 12 11 11 11 10 10 10 9 9 8 8 8 7 6 6 6 6 7 7 7 8 8 8 9 10 11 11 13 14 15 16 17 18 18 18 19 20 21 22 23 25 26 27 29 31 32 33 34 36 36 37 38 38 38 38 39 40 41 41 41 41 40 38 36 36
10 10 9 10 11 11 12 13 14 14 14 15 15 15 16 16 15 13 13 12 11 11 11 11 11 11 10 10 9 9 9 9 9 8 8 8 8 8 8 8 8 9 9 10 11 12 12 13 14 15 16 17 17 18 18 19 19 20 21 22 24 25 26 28 29 30 30 32 33 33 34 35 36 36 35 36 37 37 38 39 39 39 38 37 36
9 9 8 8 8 9 9 10 11 12 13 13 13 14 14 13 12 12 12 11 10 11 11 12 12 11 11 10 9 9 9 9 9 9 8 8 8 9 9 8 8 8 9 9 10 11 12 13 14 14 15 15 15 15 17 17 17 18 19 20 20 21 22 23 24 24 26 28 29 30 31 32 34 34 34 34 34 34 35 35 35 36 36 35 34
10 8 7 7 7 8 8 9 10 11 11 11 12 12 12 11 10 10 10 9 10 11 11 12 13 13 13 12 12 11 10 10 9 9 9 9 8 8 9 8 8 8 9 9 10 11 12 13 13 14 14 14 14 14 15 15 16 16 17 18 18 18 19 19 19 20 22 24 25 26 27 28 29 31 32 32 32 31 31 31 31 31 31 31 32
9 8 7 7 7 7 7 8 9 9 9 9 9 9 8 8 8 8 8 8 8 9 10 11 11 12 13 13 13 12 12 11 10 10 9 8 7 7 7 7 8 8 9 9 10 10 11 11 11 12 13 13 13 13 13 14 14 15 16 17 17 18 19 19 18 19 21 22 22 22 23 23 24 25 27 27 27 27 27 27 27 27 27 28 29
7 7 6 6 6 6 6 6 7 8 7 8 7 5 5 5 5 6 7 7 7 9 9 10 10 11 12 13 13 13 13 12 11 10 8 7 7 6 7 7 8 9 9 9 9 9 9 10 10 10 11 12 13 13 13 13 13 13 13 14 15 16 17 17 17 18 20 20 20 20 20 20 20 21 21 22 23 23 24 24 25 25 26 26 27
6 5 5 4 4 5 5 5 5 5 5 6 6 2 2 4 4 5 6 7 7 8 9 10 11 12 13 14 15 14 14 14 12 9 7 5 5 5 6 7 7 7 8 9 10 10 11 11 11 11 11 12 14 15 15 15 14 12 12 12 13 14 15 15 16 18 18 18 18 19 19 18 18 19 20 20 20 21 23 24 24 25 25 25 25
Wind_Direction
209 212 212 211 213 214 215 217 215 213 215 215 213 212 214 214 209 209 216 221 219 214 208 200 198 196 192 193 190 183 183 183 183 186 189 194 200 205 206 206 207 207 206 206 210 213 213 210 202 196 195 192 191 190 189 189 184 188 187 179 186 179 159 161 166 163 157 147 143 144 143 146 148 148 146 143 145 148 153 155 145 137 137 126 104
211 213 212 212 214 215 215 215 211 207 208 211 212 214 219 216 205 201 209 217 214 208 208 202 197 196 191 190 189 184 183 186 188 190 194 202 206 208 208 207 210 213 216 217 218 219 219 217 210 202 198 197 198 193 187 185 182 182 180 174 180 175 161 163 167 167 161 152 149 146 141 141 141 141 138 135 135 136 142 142 135 132 129 119 106
213 212 213 214 216 215 215 215 209 205 207 211 213 214 218 218 214 205 201 211 214 207 203 198 194 193 190 188 186 184 184 187 189 191 196 202 204 207 209 210 215 219 223 222 217 215 213 211 211 209 203 199 200 195 189 185 180 177 177 177 178 170 165 167 167 173 169 157 152 145 140 138 131 132 135 131 129 128 129 125 121 122 119 115 108
208 208 213 215 216 215 215 215 208 205 207 212 215 215 213 214 219 208 199 212 220 207 196 193 188 185 185 184 183 185 187 189 191 196 201 203 205 208 211 212 214 217 220 217 210 206 204 203 206 207 203 199 197 195 192 188 182 177 177 180 182 174 170 171 169 177 176 161 153 148 146 142 131 136 136 124 119 120 119 117 115 115 114 113 111
205 205 210 214 215 214 214 213 206 205 207 212 217 216 209 208 209 204 205 218 217 202 193 188 182 180 179 180 182 186 191 195 198 201 204 206 208 208 207 209 210 211 214 212 205 200 198 199 202 201 199 198 197 195 191 189 185 181 178 178 185 183 177 176 173 174 175 168 162 155 150 149 146 145 136 121 119 121 117 116 115 113 113 112 113
208 209 210 212 215 213 213 210 204 204 207 211 216 215 210 207 200 199 208 213 204 194 188 181 178 180 179 178 182 187 192 196 200 202 207 209 209 206 206 210 210 208 209 205 199 197 197 198 198 195 194 196 199 194 187 187 185 182 181 177 182 191 187 181 177 174 174 172 170 164 160 178 168 154 142 130 127 124 120 120 118 116 117 115 114
208 212 213 212 213 212 211 206 202 202 203 208 212 211 211 205 195 194 199 198 189 181 179 178 179 180 180 181 184 188 190 192 196 200 204 206 205 204 205 205 202 200 199 195 194 196 196 195 193 189 189 194 197 191 182 183 184 182 182 178 178 189 193 187 180 176 177 176 177 177 179 203 183 167 158 149 139 131 129 127 123 121 121 118 116
206 211 212 212 212 211 209 203 200 199 201 208 209 208 206 195 187 186 186 183 178 175 177 179 180 179 181 184 185 187 188 189 192 192 194 197 198 197 197 194 191 188 187 187 191 196 195 192 190 190 193 192 188 185 181 179 183 186 186 180 177 183 191 193 185 180 184 183 183 187 187 194 190 183 174 165 152 141 138 134 129 126 124 122 121
210 212 211 210 210 210 207 201 198 197 201 205 204 203 196 183 179 178 177 178 176 177 179 178 178 179 181 183 183 184 185 188 188 185 187 189 189 190 190 188 186 183 180 179 180 186 188 189 192 195 196 191 183 182 183 182 185 190 189 185 183 184 192 197 193 191 193 190 187 190 187 175 187 190 187 182 166 147 146 145 138 133 127 125 124
211 214 211 206 207 207 204 199 196 196 199 199 199 197 184 177 176 175 177 179 179 180 178 176 177 180 181 181 182 182 183 186 185 183 185 185 186 189 187 186 185 180 177 173 170 173 180 184 186 189 192 191 185 186 190 190 190 192 191 190 189 190 195 199 200 202 201 199 196 196 195 184 187 194 195 194 180 156 151 150 145 140 133 127 122
206 209 206 202 203 202 198 195 193 196 196 192 194 190 179 178 177 175 179 181 181 181 178 178 179 179 181 181 180 183 185 185 184 184 184 184 185 187 186 186 182 180 177 170 169 169 170 175 173 176 184 188 190 193 194 194 196 194 191 191 191 192 196 197 199 203 202 203 203 204 207 200 193 201 206 202 190 168 154 151 150 147 139 132 124
199 200 196 195 194 190 189 190 191 195 192 187 191 185 178 180 179 178 180 182 182 182 181 182 182 180 180 178 179 186 187 184 183 183 181 179 178 179 183 183 177 175 175 172 174 172 168 168 164 167 175 181 188 189 189 194 195 194 194 193 193 195 196 197 200 203 203 203 206 213 215 209 199 210 219 210 198 190 169 156 152 152 146 140 131
192 191 189 192 189 181 183 186 189 194 190 185 189 184 180 181 180 181 182 182 184 184 183 183 183 179 175 174 177 181 181 178 178 176 171 165 159 158 162 164 163 163 166 170 176 177 180 180 170 162 162 169 177 179 185 194 189 188 192 190 192 198 199 200 203 205 206 206 208 216 219 209 193 203 223 214 200 197 183 163 153 154 154 146 136
194 191 184 190 190 181 183 185 189 193 188 186 188 184 182 182 182 182 183 184 184 184 184 184 181 175 171 172 172 170 170 169 169 166 160 154 148 146 148 148 150 153 159 167 171 175 184 191 186 172 161 160 166 171 179 187 186 188 190 184 187 198 199 200 204 205 206 205 205 208 211 204 188 184 201 209 202 196 189 175 160 156 156 149 140
195 199 191 191 193 190 189 188 190 192 187 186 188 186 185 184 184 184 183 185 186 185 185 182 177 173 172 172 168 164 165 164 163 161 157 152 146 143 143 143 145 145 154 166 171 172 172 181 185 177 167 161 161 164 167 176 186 190 184 176 179 185 186 192 198 202 202 199 202 202 200 196 185 175 174 187 198 195 191 186 172 160 158 154 149
193 200 195 192 195 196 195 190 190 193 188 187 188 187 187 186 185 185 185 187 188 186 184 180 177 176 175 173 167 165 166 164 163 160 157 152 145 141 141 143 142 137 150 164 167 170 164 165 173 173 172 171 170 171 168 176 190 190 181 177 181 184 186 190 194 199 200 199 202 202 197 192 181 172 169 169 181 184 179 186 185 171 161 159 159
192 199 194 190 194 198 197 192 191 193 191 188 189 188 188 189 188 187 187 189 189 186 184 182 181 181 180 177 171 170 170 167 164 161 159 155 148 146 143 141 141 137 151 161 160 167 167 164 168 172 177 179 182 186 185 186 190 191 190 188 191 191 189 192 197 200 200 202 204 200 194 189 180 173 169 164 168 169 165 172 179 177 165 166 165
193 195 189 188 199 204 200 194 193 196 194 190 189 188 189 190 190 190 189 190 189 187 185 185 185 186 185 181 176 175 175 171 167 165 165 159 153 150 143 136 136 136 146 152 153 161 168 170 174 179 185 188 190 193 191 184 179 185 191 191 191 188 186 192 200 200 199 203 206 202 195 188 183 176 169 165 163 158 151 155 160 151 156 176 172
196 197 190 193 205 209 204 198 195 196 195 192 189 190 192 192 192 192 191 190 189 187 187 189 190 189 188 185 180 179 179 174 172 173 170 161 154 151 144 136 136 134 139 147 149 157 168 176 175 174 179 183 185 185 179 174 171 174 180 181 178 178 181 187 190 190 190 193 194 196 194 190 186 180 171 168 164 155 152 152 155 155 141 156 166
193 196 194 201 206 208 210 207 201 196 193 192 192 193 194 194 194 194 194 193 191 190 191 191 190 189 189 187 184 184 182 179 178 178 173 161 154 152 146 142 143 134 134 145 152 161 172 171 161 156 156 161 167 168 168 168 167 165 164 163 162 166 168 165 162 164 162 158 157 164 177 182 183 181 174 170 165 158 161 162 164 173 160 147 155
189 186 185 193 196 203 220 222 210 197 191 191 193 194 196 197 196 197 197 196 194 194 194 192 189 188 187 187 188 188 186 184 183 179 170 159 154 154 152 151 153 141 133 146 157 165 167 158 151 148 147 149 152 155 158 157 154 151 146 144 146 150 149 143 142 144 141 136 134 137 153 166 172 176 174 172 168 164 168 170 174 189 188 174 172
196 193 189 193 193 196 218 228 215 199 196 194 193 194 196 198 198 198 199 198 197 196 195 192 189 186 184 184 187 189 186 182 178 173 166 161 157 155 156 160 160 150 144 154 164 165 157 151 150 151 149 145 139 139 142 139 137 140 139 139 141 139 140 141 140 141 139 134 127 122 132 154 168 175 175 175 174 172 174 179 185 198 205 206 211
174 186 188 195 195 188 204 218 213 204 202 197 191 192 196 199 201 200 199 198 198 199 197 193 191 186 183 183 185 185 181 176 172 168 162 160 161 158 157 161 163 166 170 171 173 166 155 151 152 155 154 147 137 133 135 136 138 144 145 144 142 135 134 140 141 141 143 140 135 128 124 139 161 175 183 185 185 184 186 190 195 200 209 223 236
148 161 170 186 191 186 195 206 210 210 206 196 191 192 195 201 204 203 201 200 201 202 202 198 193 188 186 187 188 184 178 174 170 165 161 162 165 161 159 164 171 186 194 186 180 172 162 159 157 157 158 154 147 140 140 143 146 150 153 152 148 141 137 140 142 142 144 143 140 140 138 143 154 169 186 190 192 193 195 200 206 208 216 230 240
140 151 160 172 186 196 199 201 207 212 204 194 192 193 196 203 206 203 202 202 204 206 206 203 197 191 189 190 190 184 177 173 168 164 163 164 165 160 158 167 178 193 203 194 184 177 169 166 164 163 164 162 160 155 152 154 155 157 161 162 161 157 154 155 157 158 160 160 160 160 159 160 167 178 183 185 190 196 200 207 212 216 225 237 246
136 147 156 166 181 194 194 190 196 201 197 190 189 192 198 202 202 201 203 204 206 208 208 205 200 195 193 192 189 183 176 173 169 166 162 160 159 159 163 173 175 186 197 183 165 160 161 167 170 168 168 170 172 170 166 166 168 168 169 170 171 172 173 174 178 179 181 184 183 180 175 172 176 182 180 182 190 195 201 210 217 226 238 247 254
131 146 157 160 158 167 171 171 178 186 189 190 190 192 199 202 198 198 203 206 208 207 205 203 200 197 196 193 188 183 178 174 168 162 156 155 158 160 166 176 172 169 166 149 135 133 138 154 167 170 172 176 176 176 175 175 179 180 179 178 178 179 181 182 184 186 186 191 191 184 178 178 180 178 175 178 187 194 206 221 234 241 248 254 260
115 131 143 135 121 134 149 155 158 164 170 178 186 193 201 202 197 197 203 206 206 205 203 200 197 195 196 194 192 190 183 174 165 157 154 156 161 166 169 172 167 158 151 140 129 125 126 134 149 159 165 167 161 159 164 168 179 184 184 183 183 181 181 181 181 181 175 174 181 183 182 185 188 189 191 195 204 214 224 231 238 242 246 256 260
89 102 108 104 105 118 133 140 142 142 145 157 174 186 194 193 189 192 198 201 202 202 200 197 194 194 198 199 198 196 186 171 159 156 164 167 165 171 175 171 168 163 157 152 144 139 135 129 129 131 138 146 148 149 154 154 157 163 168 176 181 181 181 179 180 179 171 165 171 183 189 195 199 204 211 217 223 229 230 231 235 240 246 254 257
75 85 97 100 102 112 123 130 134 135 138 150 167 179 184 183 183 187 193 197 199 198 197 197 196 199 203 202 197 193 186 180 177 182 199 198 183 183 186 178 174 173 170 169 165 160 157 150 142 140 143 148 151 154 161 165 165 164 164 167 173 179 182 184 185 184 183 182 181 188 196 202 207 212 216 222 228 234 240 246 250 253 255 255 254
78 85 97 102 104 109 114 119 124 132 139 149 162 169 170 171 177 184 190 194 197 196 197 200 201 201 202 199 196 193 188 189 196 205 213 206 193 193 195 186 180 181 183 183 179 175 174 169 165 164 164 162 160 159 162 168 172 176 178 178 178 182 185 191 194 194 198 205 207 210 214 218 223 228 232 237 243 248 255 259 262 265 267 265 261
79 85 96 103 106 108 110 113 118 126 135 142 151 156 157 166 176 180 185 192 196 196 195 195 195 196 197 196 196 195 190 189 196 204 206 198 192 195 197 192 188 188 191 193 189 185 185 186 185 183 180 178 177 175 172 171 172 175 179 184 188 192 195 198 203 206 210 216 222 226 230 233 238 242 246 251 257 263 266 266 266 268 269 271 271
80 84 92 97 100 104 109 113 115 117 122 130 141 148 150 159 169 173 177 184 188 191 191 189 189 192 193 193 193 193 194 195 199 204 202 194 193 197 198 195 194 196 201 204 204 200 199 200 200 198 197 195 193 192 190 188 187 186 185 187 191 195 201 205 209 213 216 219 225 229 233 238 242 246 250 255 260 265 269 270 270 271 271 271 271
86 85 87 90 92 99 107 112 113 114 118 124 132 138 139 145 154 163 168 171 171 176 179 179 181 185 186 186 186 189 195 199 199 198 195 192 194 197 196 194 194 197 202 207 210 212 213 214 214 213 212 213 211 211 211 211 213 214 214 214 213 212 214 217 219 223 225 227 230 233 236 239 242 245 250 254 259 263 266 268 270 271 273 274 274
88 85 84 85 89 96 103 108 110 114 118 122 124 128 132 135 141 149 155 159 160 160 160 160 161 165 169 172 178 185 189 191 191 188 185 185 186 185 185 186 189 192 196 201 205 210 215 217 219 220 220 223 225 226 227 230 233 235 237 239 239 238 239 241 243 244 245 247 248 249 250 249 250 250 251 253 257 260 262 264 266 267 269 271 272
93 91 88 87 88 92 97 100 103 107 111 115 118 122 124 124 126 129 133 139 144 143 142 143 143 144 149 155 165 173 172 171 174 176 178 179 179 179 179 181 187 193 196 197 199 201 207 212 216 221 224 228 233 237 240 243 247 250 254 256 258 258 259 260 260 261 262 264 265 265 265 264 264 263 262 260 260 261 262 263 264 265 266 267 268
100 98 95 94 93 93 94 96 97 97 99 103 110 115 116 115 116 118 120 125 129 127 125 129 130 130 134 138 143 150 153 157 165 171 178 179 173 174 177 180 191 200 201 199 197 195 199 205 212 224 232 239 244 248 252 256 258 261 263 265 267 267 267 267 267 268 269 269 269 269 270 270 271 271 270 269 267 266 266 265 265 266 265 264 264
104 102 102 102 101 100 100 101 101 100 99 101 104 107 107 107 107 108 110 110 112 112 112 114 116 118 122 124 127 132 135 144 160 173 182 184 178 178 182 182 188 197 201 201 199 197 203 209 214 227 240 250 257 259 261 262 263 265 265 266 267 267 267 268 268 269 270 270 271 271 271 272 271 271 271 271 270 269 268 267 267 267 266 265 264
104 104 106 105 103 102 101 100 101 103 104 107 108 106 104 103 102 103 103 99 99 102 104 106 107 110 116 121 130 135 123 119 136 152 160 171 183 205 211 204 200 205 209 208 205 206 212 216 222 238 249 255 260 263 266 266 267 268 269 269 270 270 270 270 271 271 271 272 272 272 272 272 272 272 271 271 271 270 269 269 268 267 266 266 266
101 103 104 103 102 100 97 94 94 98 101 104 107 106 103 100 100 101 99 95 92 92 94 97 100 103 106 110 120 134 131 119 126 127 117 119 137 174 206 225 244 251 247 239 238 241 238 233 243 267 274 270 269 269 271 273 274 275 277 278 279 280 281 281 281 281 281 280 279 277 275 274 273 272 272 272 272 272 271 269 267 266 266 267 266
102 102 102 101 99 96 92 91 91 93 95 96 98 99 97 97 99 97 92 89 87 85 83 83 86 89 91 93 93 97 108 117 114 86 78 64 80 138 184 217 248 263 262 255 256 262 260 256 266 281 283 281 281 281 283 285 287 288 289 289 290 290 291 291 290 290 289 288 288 286 284 282 279 277 276 275 274 274 273 271 270 270 271 271 269
100 101 102 101 97 94 92 90 88 87 86 86 87 88 88 89 88 84 80 79 79 78 77 73 71 70 71 71 67 59 60 58 34 13 356 330 323 309 275 258 258 263 264 261 262 266 265 265 272 278 279 280 282 285 287 289 289 290 290 291 291 291 291 291 291 290 289 288 287 287 286 284 283 282 281 279 277 275 274 272 272 272 273 273 271
94 96 98 99 98 96 93 91 88 84 80 77 78 81 81 79 77 73 70 69 67 64 63 64 64 62 58 56 53 46 40 36 29 17 0 342 330 318 307 299 288 281 280 276 272 272 273 275 277 277 277 279 282 285 286 286 287 288 289 288 287 287 286 286 285 285 285 284 283 283 282 281 280 280 279 279 277 275 274 273 272 271 269 269 268
86 88 92 94 95 96 95 93 89 84 78 71 69 74 78 76 73 69 67 67 67 65 63 63 63 62 59 55 48 40 34 29 24 16 7 354 340 329 318 307 299 292 286 281 278 276 276 277 277 277 279 280 282 283 284 285 286 287 287 287 286 285 284 283 282 282 282 281 280 279 277 276 276 274 274 273 273 273 272 272 271 271 269 267 266
78 80 80 81 86 90 90 88 82 76 71 65 61 64 70 72 71 69 67 68 70 72 73 71 67 62 57 50 42 33 26 21 15 6 357 344 332 327 321 313 308 304 297 294 292 290 289 287 286 286 286 286 287 288 287 286 285 284 284 283 284 284 284 283 283 282 281 280 279 278 276 275 274 274 273 272 272 272 272 272 271 271 270 269 267
80 78 73 72 77 79 79 77 73 66 60 57 53 54 61 67 69 68 68 70 74 77 78 76 71 66 59 51 43 34 25 16 8 1 352 341 333 327 320 314 309 305 303 303 301 300 300 298 297 296 295 295 296 297 295 293 291 287 285 283 282 281 281 282 283 283 282 281 279 279 279 279 278 278 277 275 274 273 273 273 273 273 272 271 270
83 79 73 69 68 68 68 69 69 63 55 50 48 49 53 58 61 61 61 63 67 71 72 69 66 61 55 49 40 32 24 14 4 357 349 341 336 328 323 320 316 312 311 310 308 306 304 303 304 304 303 303 305 305 303 301 299 295 291 288 286 285 284 284 284 285 284 282 282 282 282 282 281 280 279 277 276 275 273 273 273 273 273 271 270
87 81 75 69 67 68 69 68 68 65 57 50 49 50 52 54 56 57 55 53 56 59 59 56 52 48 43 37 31 24 18 10 3 354 347 345 340 330 325 324 322 324 326 324 320 317 313 312 313 313 312 314 318 318 315 312 309 305 301 297 294 292 290 288 286 284 282 281 283 284 284 284 283 282 280 277 275 273 273 273 273 274 274 272 270
93 89 83 76 72 70 70 72 72 67 58 49 45 44 49 51 53 54 52 50 55 58 55 52 48 43 37 31 25 19 13 8 4 356 349 351 349 338 333 331 329 329 329 322 318 316 314 316 319 321 323 328 331 332 329 324 319 315 309 304 302 299 296 293 290 286 284 284 286 288 290 292 291 288 285 281 277 273 271 271 271 271 272 271 269
87 90 88 82 77 71 66 69 70 64 56 44 33 36 55 59 58 57 51 48 53 57 54 52 47 40 34 28 23 17 11 9 9 6 360 359 358 351 344 339 335 332 327 322 322 326 328 330 335 340 342 342 342 342 339 334 329 325 320 316 314 311 305 299 293 288 287 290 295 298 300 301 300 297 293 288 283 277 274 272 271 270 270 270 269
64 72 74 74 77 71 62 57 51 40 32 23 14 28 96 81 70 67 56 50 52 53 50 48 43 35 30 25 21 17 14 12 13 13 13 16 20 12 359 350 346 344 341 339 340 344 346 345 348 353 354 350 346 344 341 337 331 326 325 326 326 322 314 303 293 287 287 292 299 304 307 308 306 302 300 296 292 287 282 279 276 273 271 272 272